Time,TemperatureF,DewpointF,PressureIn,WindDirection,WindDirectionDegrees,WindSpeedMPH,WindSpeedGustMPH,Humidity,HourlyPrecipIn,Conditions,Clouds,dailyrainin,SoftwareType,DateUTC
2013-01-10 00:04:00,52.3,51.8,30.33,WNW,292,2.7,-999.0,98,-99.99,,,0.00,Acu-Link.com,2013-01-10 05:04:00,
2013-01-10 00:20:00,52.3,51.8,30.33,WNW,292,3.7,-999.0,98,-99.99,,,0.00,Acu-Link.com,2013-01-10 05:20:00,
2013-01-10 00:35:00,49.1,48.6,30.33,WNW,292,3.7,-999.0,98,-99.99,,,0.00,Acu-Link.com,2013-01-10 05:35:00,
2013-01-10 00:50:00,49.1,48.6,30.32,WNW,292,4.7,-999.0,98,-99.99,,,0.00,Acu-Link.com,2013-01-10 05:50:00,
2013-01-10 01:06:00,49.5,49.0,30.33,WNW,292,3.7,-999.0,98,-99.99,,,0.00,Acu-Link.com,2013-01-10 06:06:00,
2013-01-10 01:21:00,49.3,48.8,30.34,NNW,337,0.0,-999.0,98,-99.99,,,0.00,Acu-Link.com,2013-01-10 06:21:00,
2013-01-10 01:36:00,49.8,49.3,30.33,SW,225,0.0,-999.0,98,-99.99,,,0.00,Acu-Link.com,2013-01-10 06:36:00,
2013-01-10 01:52:00,49.3,48.8,30.33,West,270,2.7,-999.0,98,-99.99,,,0.00,Acu-Link.com,2013-01-10 06:52:00,
2013-01-10 02:07:00,49.1,48.6,30.33,WNW,292,0.0,-999.0,98,-99.99,,,0.00,Acu-Link.com,2013-01-10 07:07:00,
2013-01-10 02:22:00,49.8,49.3,30.33,WNW,292,2.7,-999.0,98,-99.99,,,0.00,Acu-Link.com,2013-01-10 07:22:00,
2013-01-10 02:38:00,50.7,50.2,30.33,NW,315,2.7,-999.0,98,-99.99,,,0.00,Acu-Link.com,2013-01-10 07:38:00,
2013-01-10 02:53:00,50.5,50.0,30.33,WNW,292,2.2,-999.0,98,-99.99,,,0.00,Acu-Link.com,2013-01-10 07:53:00,
2013-01-10 03:08:00,51.3,50.8,30.32,WNW,292,3.2,-999.0,98,-99.99,,,0.00,Acu-Link.com,2013-01-10 08:08:00,
2013-01-10 03:24:00,51.1,50.6,30.33,WNW,292,2.7,-999.0,98,-99.99,,,0.00,Acu-Link.com,2013-01-10 08:24:00,
2013-01-10 03:39:00,51.1,50.6,30.32,WNW,292,3.7,-999.0,98,-99.99,,,0.00,Acu-Link.com,2013-01-10 08:39:00,
2013-01-10 03:54:00,51.1,50.6,30.32,WNW,292,3.2,-999.0,98,-99.99,,,0.00,Acu-Link.com,2013-01-10 08:54:00,
2013-01-10 04:09:00,51.1,50.6,30.33,WNW,292,4.2,-999.0,98,-99.99,,,0.00,Acu-Link.com,2013-01-10 09:09:00,
2013-01-10 04:24:00,50.2,49.7,30.32,WNW,292,3.7,-999.0,98,-99.99,,,0.00,Acu-Link.com,2013-01-10 09:24:00,
2013-01-10 04:40:00,51.4,50.9,30.32,WNW,292,3.7,-999.0,98,-99.99,,,0.00,Acu-Link.com,2013-01-10 09:40:00,
2013-01-10 04:55:00,52.2,51.7,30.31,WNW,292,3.7,-999.0,98,-99.99,,,0.00,Acu-Link.com,2013-01-10 09:55:00,
2013-01-10 05:10:00,52.5,52.0,30.31,WNW,292,2.7,-999.0,98,-99.99,,,0.00,Acu-Link.com,2013-01-10 10:10:00,
2013-01-10 05:25:00,52.2,51.7,30.30,WNW,292,2.7,-999.0,98,-99.99,,,0.00,Acu-Link.com,2013-01-10 10:25:00,
2013-01-10 05:41:00,52.7,52.2,30.31,WNW,292,3.2,-999.0,98,-99.99,,,0.00,Acu-Link.com,2013-01-10 10:41:00,
2013-01-10 05:56:00,52.9,52.4,30.31,WNW,292,2.2,-999.0,98,-99.99,,,0.00,Acu-Link.com,2013-01-10 10:56:00,
2013-01-10 06:11:00,52.5,52.0,30.32,WNW,292,3.2,-999.0,98,-99.99,,,0.00,Acu-Link.com,2013-01-10 11:11:00,
2013-01-10 06:27:00,52.5,52.0,30.32,WNW,292,1.7,-999.0,98,-99.99,,,0.00,Acu-Link.com,2013-01-10 11:27:00,
2013-01-10 06:42:00,52.5,52.0,30.32,WNW,292,2.7,-999.0,98,-99.99,,,0.00,Acu-Link.com,2013-01-10 11:42:00,
2013-01-10 06:57:00,52.5,52.0,30.33,WNW,292,1.1,-999.0,98,-99.99,,,0.00,Acu-Link.com,2013-01-10 11:57:00,
2013-01-10 07:13:00,52.7,52.2,30.33,WNW,292,3.2,-999.0,98,-99.99,,,0.00,Acu-Link.com,2013-01-10 12:13:00,
2013-01-10 07:28:00,51.3,50.8,30.34,WNW,292,3.2,-999.0,98,-99.99,,,0.00,Acu-Link.com,2013-01-10 12:28:00,
2013-01-10 07:43:00,51.6,51.1,30.33,WNW,292,0.0,-999.0,98,-99.99,,,0.00,Acu-Link.com,2013-01-10 12:43:00,
2013-01-10 07:59:00,52.5,52.0,30.33,West,270,0.0,-999.0,98,-99.99,,,0.00,Acu-Link.com,2013-01-10 12:59:00,
2013-01-10 08:14:00,52.2,51.7,30.34,ESE,112,0.0,-999.0,98,-99.99,,,0.00,Acu-Link.com,2013-01-10 13:14:00,
2013-01-10 08:29:00,51.8,51.3,30.35,ESE,112,0.0,-999.0,98,-99.99,,,0.00,Acu-Link.com,2013-01-10 13:29:00,
2013-01-10 08:45:00,52.3,51.8,30.36,SSE,157,1.7,-999.0,98,-99.99,,,0.00,Acu-Link.com,2013-01-10 13:45:00,
2013-01-10 09:00:00,52.9,52.4,30.36,SSE,157,2.2,-999.0,98,-99.99,,,0.00,Acu-Link.com,2013-01-10 14:00:00,
2013-01-10 09:15:00,53.4,52.8,30.37,SE,135,2.2,-999.0,98,-99.99,,,0.00,Acu-Link.com,2013-01-10 14:15:00,
2013-01-10 09:31:00,53.6,53.0,30.36,SSE,157,2.7,-999.0,98,-99.99,,,0.00,Acu-Link.com,2013-01-10 14:31:00,
2013-01-10 09:46:00,54.0,53.4,30.36,SE,135,4.2,-999.0,98,-99.99,,,0.00,Acu-Link.com,2013-01-10 14:46:00,
2013-01-10 10:01:00,54.0,53.4,30.38,SSE,157,3.2,-999.0,98,-99.99,,,0.00,Acu-Link.com,2013-01-10 15:01:00,
2013-01-10 10:16:00,55.0,54.4,30.36,SE,135,4.2,-999.0,98,-99.99,,,0.00,Acu-Link.com,2013-01-10 15:16:00,
2013-01-10 10:32:00,54.3,53.7,30.37,SSE,157,5.3,-999.0,98,-99.99,,,0.00,Acu-Link.com,2013-01-10 15:32:00,
2013-01-10 10:47:00,53.8,53.2,30.37,SE,135,7.8,-999.0,98,-99.99,,,0.00,Acu-Link.com,2013-01-10 15:47:00,
2013-01-10 11:02:00,53.8,53.2,30.36,SE,135,4.7,-999.0,98,-99.99,,,0.00,Acu-Link.com,2013-01-10 16:02:00,
2013-01-10 11:18:00,54.3,53.7,30.36,ESE,112,4.2,-999.0,98,-99.99,,,0.00,Acu-Link.com,2013-01-10 16:18:00,
2013-01-10 11:33:00,54.5,53.9,30.36,ESE,112,3.7,-999.0,98,-99.99,,,0.00,Acu-Link.com,2013-01-10 16:33:00,
2013-01-10 11:48:00,54.7,54.1,30.36,SSE,157,4.7,-999.0,98,-99.99,,,0.00,Acu-Link.com,2013-01-10 16:48:00,
2013-01-10 12:04:00,54.1,53.5,30.34,East,90,3.7,-999.0,98,-99.99,,,0.00,Acu-Link.com,2013-01-10 17:04:00,
2013-01-10 12:19:00,54.3,53.7,30.33,SE,135,3.7,-999.0,98,-99.99,,,0.00,Acu-Link.com,2013-01-10 17:19:00,
2013-01-10 12:34:00,55.6,55.0,30.32,SE,135,4.7,-999.0,98,-99.99,,,0.00,Acu-Link.com,2013-01-10 17:34:00,
2013-01-10 12:50:00,55.6,55.0,30.31,SE,135,2.7,-999.0,98,-99.99,,,0.00,Acu-Link.com,2013-01-10 17:50:00,
2013-01-10 13:05:00,55.9,55.3,30.31,SE,135,3.7,-999.0,98,-99.99,,,0.00,Acu-Link.com,2013-01-10 18:05:00,
2013-01-10 13:20:00,57.9,57.3,30.29,SSE,157,4.7,-999.0,98,-99.99,,,0.00,Acu-Link.com,2013-01-10 18:20:00,
2013-01-10 13:36:00,59.4,58.8,30.28,ESE,112,5.3,-999.0,98,-99.99,,,0.00,Acu-Link.com,2013-01-10 18:36:00,
2013-01-10 13:51:00,59.2,58.6,30.28,SSE,157,5.3,-999.0,98,-99.99,,,0.00,Acu-Link.com,2013-01-10 18:51:00,
2013-01-10 14:06:00,61.2,60.6,30.27,SSE,157,3.7,-999.0,98,-99.99,,,0.00,Acu-Link.com,2013-01-10 19:06:00,
2013-01-10 14:21:00,60.8,60.2,30.28,SSE,157,4.7,-999.0,98,-99.99,,,0.00,Acu-Link.com,2013-01-10 19:21:00,
2013-01-10 14:37:00,59.9,59.3,30.27,SSE,157,4.7,-999.0,98,-99.99,,,0.00,Acu-Link.com,2013-01-10 19:37:00,
2013-01-10 14:52:00,60.1,59.5,30.27,SE,135,3.2,-999.0,98,-99.99,,,0.00,Acu-Link.com,2013-01-10 19:52:00,
2013-01-10 15:07:00,60.1,59.5,30.28,SSE,157,4.2,-999.0,98,-99.99,,,0.00,Acu-Link.com,2013-01-10 20:07:00,
2013-01-10 15:23:00,60.1,59.5,30.27,ESE,112,5.3,-999.0,98,-99.99,,,0.00,Acu-Link.com,2013-01-10 20:23:00,
2013-01-10 15:38:00,59.9,59.3,30.28,East,90,3.2,-999.0,98,-99.99,,,0.00,Acu-Link.com,2013-01-10 20:38:00,
2013-01-10 15:53:00,59.7,59.1,30.28,SE,135,4.7,-999.0,98,-99.99,,,0.00,Acu-Link.com,2013-01-10 20:53:00,
2013-01-10 16:09:00,59.2,58.6,30.28,SE,135,2.7,-999.0,98,-99.99,,,0.00,Acu-Link.com,2013-01-10 21:09:00,
2013-01-10 16:24:00,57.9,57.3,30.27,SE,135,6.3,-999.0,98,-99.99,,,0.00,Acu-Link.com,2013-01-10 21:24:00,
2013-01-10 16:39:00,57.0,56.4,30.28,SSE,157,3.2,-999.0,98,-99.99,,,0.00,Acu-Link.com,2013-01-10 21:39:00,
2013-01-10 16:54:00,56.3,55.7,30.28,SE,135,3.7,-999.0,98,-99.99,,,0.00,Acu-Link.com,2013-01-10 21:54:00,
2013-01-10 17:10:00,55.4,54.8,30.28,SSE,157,3.2,-999.0,98,-99.99,,,0.00,Acu-Link.com,2013-01-10 22:10:00,
2013-01-10 17:25:00,55.2,54.6,30.29,SE,135,3.7,-999.0,98,-99.99,,,0.00,Acu-Link.com,2013-01-10 22:25:00,
2013-01-10 17:40:00,55.2,54.6,30.28,ESE,112,6.8,-999.0,98,-99.99,,,0.00,Acu-Link.com,2013-01-10 22:40:00,
2013-01-10 17:56:00,55.0,54.4,30.29,ESE,112,3.7,-999.0,98,-99.99,,,0.00,Acu-Link.com,2013-01-10 22:56:00,
2013-01-10 18:11:00,54.7,54.1,30.28,SE,135,4.2,-999.0,98,-99.99,,,0.00,Acu-Link.com,2013-01-10 23:11:00,
2013-01-10 18:26:00,54.1,53.5,30.28,SE,135,4.2,-999.0,98,-99.99,,,0.00,Acu-Link.com,2013-01-10 23:26:00,
2013-01-10 18:41:00,53.6,53.0,30.29,SSE,157,4.7,-999.0,98,-99.99,,,0.00,Acu-Link.com,2013-01-10 23:41:00,
2013-01-10 18:57:00,52.9,52.4,30.29,SE,135,4.2,-999.0,98,-99.99,,,0.00,Acu-Link.com,2013-01-10 23:57:00,
2013-01-10 19:12:00,52.3,51.8,30.29,SE,135,4.7,-999.0,98,-99.99,,,0.00,Acu-Link.com,2013-01-11 00:12:00,
2013-01-10 19:27:00,51.8,51.3,30.28,SE,135,3.7,-999.0,98,-99.99,,,0.00,Acu-Link.com,2013-01-11 00:27:00,
2013-01-10 19:42:00,51.6,51.1,30.29,SSE,157,3.2,-999.0,98,-99.99,,,0.00,Acu-Link.com,2013-01-11 00:42:00,
2013-01-10 19:58:00,51.6,51.1,30.27,SE,135,4.2,-999.0,98,-99.99,,,0.00,Acu-Link.com,2013-01-11 00:58:00,
2013-01-10 20:13:00,51.8,51.3,30.27,SE,135,3.7,-999.0,98,-99.99,,,0.00,Acu-Link.com,2013-01-11 01:13:00,
2013-01-10 20:28:00,52.3,51.8,30.27,SE,135,4.7,-999.0,98,-99.99,,,0.00,Acu-Link.com,2013-01-11 01:28:00,
2013-01-10 20:44:00,52.7,52.2,30.27,SSE,157,3.7,-999.0,98,-99.99,,,0.00,Acu-Link.com,2013-01-11 01:44:00,
2013-01-10 20:59:00,52.7,52.2,30.27,ESE,112,6.3,-999.0,98,-99.99,,,0.00,Acu-Link.com,2013-01-11 01:59:00,
2013-01-10 21:14:00,52.9,52.4,30.27,SSE,157,3.7,-999.0,98,-99.99,,,0.00,Acu-Link.com,2013-01-11 02:14:00,
2013-01-10 21:30:00,52.9,52.4,30.27,SSE,157,7.3,-999.0,98,-99.99,,,0.00,Acu-Link.com,2013-01-11 02:30:00,
2013-01-10 21:45:00,52.9,52.4,30.27,SE,135,4.7,-999.0,98,-99.99,,,0.00,Acu-Link.com,2013-01-11 02:45:00,
2013-01-10 22:00:00,52.0,51.5,30.26,SSE,157,5.3,-999.0,98,-99.99,,,0.00,Acu-Link.com,2013-01-11 03:00:00,
2013-01-10 22:16:00,50.7,50.2,30.26,ESE,112,10.4,-999.0,98,-99.99,,,0.00,Acu-Link.com,2013-01-11 03:16:00,
2013-01-10 22:31:00,50.4,49.9,30.25,SSE,157,6.8,-999.0,98,-99.99,,,0.00,Acu-Link.com,2013-01-11 03:31:00,
2013-01-10 22:46:00,50.2,49.7,30.24,SE,135,7.3,-999.0,98,-99.99,,,0.00,Acu-Link.com,2013-01-11 03:46:00,
2013-01-10 23:02:00,49.8,49.3,30.23,SSE,157,4.7,-999.0,98,-99.99,,,0.01,Acu-Link.com,2013-01-11 04:02:00,
2013-01-10 23:17:00,49.6,49.1,30.23,SE,135,5.8,-999.0,98,-99.99,,,0.02,Acu-Link.com,2013-01-11 04:17:00,
2013-01-10 23:32:00,49.3,48.8,30.23,SE,135,7.8,-999.0,98,-99.99,,,0.04,Acu-Link.com,2013-01-11 04:32:00,
2013-01-10 23:48:00,48.4,47.9,30.24,SSE,157,5.3,-999.0,98,-99.99,,,0.06,Acu-Link.com,2013-01-11 04:48:00,